TimeEDT,TemperatureF,Dew PointF,Humidity,Sea Level PressureIn,VisibilityMPH,Wind Direction,Wind SpeedMPH,Gust SpeedMPH,PrecipitationIn,Events,Conditions,WindDirDegrees,DateUTC
12:53 AM,66.0,51.1,59,29.96,10.0,NE,6.9,-,N/A,,Clear,50,2013-07-21 04:53:00
1:53 AM,64.0,50.0,60,29.98,10.0,NE,6.9,-,N/A,,Clear,40,2013-07-21 05:53:00
2:53 AM,63.0,48.9,60,29.98,10.0,NE,6.9,-,N/A,,Clear,40,2013-07-21 06:53:00
3:53 AM,62.1,48.9,62,29.97,10.0,NNE,8.1,-,N/A,,Clear,30,2013-07-21 07:53:00
4:53 AM,61.0,50.0,67,29.98,10.0,ENE,4.6,-,N/A,,Scattered Clouds,60,2013-07-21 08:53:00
5:53 AM,60.1,50.0,69,29.99,10.0,ENE,5.8,-,N/A,,Scattered Clouds,60,2013-07-21 09:53:00
6:53 AM,60.1,50.0,69,30.00,10.0,NE,8.1,-,N/A,,Mostly Cloudy,50,2013-07-21 10:53:00
7:53 AM,61.0,50.0,67,30.00,10.0,East,5.8,-,N/A,,Mostly Cloudy,80,2013-07-21 11:53:00
8:53 AM,63.0,51.1,65,30.03,10.0,ENE,6.9,-,N/A,,Mostly Cloudy,70,2013-07-21 12:53:00
9:53 AM,66.9,52.0,59,30.03,10.0,East,9.2,-,N/A,,Scattered Clouds,100,2013-07-21 13:53:00
10:53 AM,70.0,54.0,57,30.02,10.0,ENE,6.9,-,N/A,,Mostly Cloudy,70,2013-07-21 14:53:00
11:53 AM,73.9,57.0,55,30.02,10.0,East,9.2,-,N/A,,Mostly Cloudy,90,2013-07-21 15:53:00
12:53 PM,75.9,57.9,54,30.01,10.0,East,4.6,-,N/A,,Mostly Cloudy,80,2013-07-21 16:53:00
1:53 PM,78.1,59.0,52,30.01,10.0,Calm,Calm,-,N/A,,Mostly Cloudy,0,2013-07-21 17:53:00
2:53 PM,81.0,57.9,45,29.99,10.0,Calm,Calm,-,N/A,,Mostly Cloudy,0,2013-07-21 18:53:00
3:53 PM,82.0,60.1,47,29.96,10.0,Variable,5.8,-,N/A,,Mostly Cloudy,0,2013-07-21 19:53:00
4:53 PM,82.0,62.1,51,29.94,10.0,SSE,8.1,-,N/A,,Mostly Cloudy,160,2013-07-21 20:53:00
5:53 PM,82.9,63.0,51,29.92,10.0,SE,8.1,-,N/A,,Mostly Cloudy,130,2013-07-21 21:53:00
6:53 PM,81.0,62.1,52,29.92,10.0,ESE,5.8,-,N/A,,Mostly Cloudy,120,2013-07-21 22:53:00
7:53 PM,79.0,64.0,60,29.93,10.0,ENE,5.8,-,N/A,,Mostly Cloudy,70,2013-07-21 23:53:00
8:53 PM,75.9,64.9,69,29.94,10.0,NE,4.6,-,0.00,Rain,Light Rain,50,2013-07-22 00:53:00
9:53 PM,73.9,66.9,79,29.93,10.0,ENE,4.6,-,0.00,Rain,Light Rain,60,2013-07-22 01:53:00
10:48 PM,73.4,66.2,78,29.94,10.0,NE,3.5,-,0.00,Rain-Thunderstorm,Light Thunderstorms and Rain,50,2013-07-22 02:48:00
10:53 PM,73.0,66.9,81,29.94,10.0,NE,3.5,-,0.00,Rain-Thunderstorm,Light Thunderstorms and Rain,40,2013-07-22 02:53:00
11:21 PM,66.2,62.6,88,30.00,4.0,West,21.9,29.9,0.01,Rain-Thunderstorm,Thunderstorms and Rain,260,2013-07-22 03:21:00
11:26 PM,66.2,64.4,94,30.01,1.5,West,16.1,-,0.06,Rain-Thunderstorm,Heavy Thunderstorms and Rain,280,2013-07-22 03:26:00
11:37 PM,66.2,62.6,88,30.01,1.0,West,10.4,20.7,0.29,Rain-Thunderstorm,Heavy Thunderstorms and Rain,270,2013-07-22 03:37:00
11:49 PM,66.2,64.4,94,30.01,3.0,WSW,5.8,-,0.41,Rain-Thunderstorm,Thunderstorms and Rain,250,2013-07-22 03:49:00
11:50 PM,66.0,64.0,93,30.01,3.0,WSW,6.9,-,0.41,Rain-Thunderstorm,Thunderstorms and Rain,250,2013-07-22 03:50:00